ERS-1 (21574 NORAD) Tracking and Keplerian Element Data

This shows tracking and keplerian element data for the satellite.

Feedback or suggestion? Click here.




ElementValue
Catalog21574
NameERS-1
Epoch Orbit75837
Epoch Day34.92850416
Epoch Year2025
RAAN38.099
Inclination98.7914
Eccentricity0.0031312
Argument of Perigee306.1704
Mean Anonmoly53.6587
Mean Motion14.39021262
Decay Rate7.69E-06
L11 21574U 91050A 25034.92850416 .00000769 00000+0 26279-3 0 9993
L22 21574 98.7914 38.0990 0031312 306.1704 53.6587 14.39021262758373



Live tracking and technical data element details for ERS-1 (NORAD 21574). ERS-1 can be tracked NOW for your location showing map with azimuth and elevation plus other details from your city location.







IsCatalogInMostPopularTable: catalog: 21574, numindb: 383
Update: records affected: 1



GetName: 21574 ERS-1

Hit Count: updated at: Thu, 15 May 2025 18:31:16 GMT